owner,sensor,date,latitude,longitude,relative_humidity,qcFlag 
DISL,ioos:station:DISL:MBLA:1,2015-07-01T00:00:00Z,30.4367,-88.0117,71.29,1111122 
DISL,ioos:station:DISL:MBLA:1,2015-07-01T00:30:00Z,30.4367,-88.0117,66.81,1111122 
DISL,ioos:station:DISL:MBLA:1,2015-07-01T01:00:00Z,30.4367,-88.0117,67.63,1111122 
DISL,ioos:station:DISL:MBLA:1,2015-07-01T01:30:00Z,30.4367,-88.0117,70.0,1111122 
DISL,ioos:station:DISL:MBLA:1,2015-07-01T02:00:00Z,30.4367,-88.0117,74.3,1111122 
DISL,ioos:station:DISL:MBLA:1,2015-07-01T02:30:00Z,30.4367,-88.0117,78.1,1111122 
DISL,ioos:station:DISL:MBLA:1,2015-07-01T03:00:00Z,30.4367,-88.0117,79.52,1111122 
DISL,ioos:station:DISL:MBLA:1,2015-07-01T03:30:00Z,30.4367,-88.0117,80.3,1111122 
DISL,ioos:station:DISL:MBLA:1,2015-07-01T04:00:00Z,30.4367,-88.0117,82.1,1111122 
DISL,ioos:station:DISL:MBLA:1,2015-07-01T04:30:00Z,30.4367,-88.0117,79.96,1111122 
DISL,ioos:station:DISL:MBLA:1,2015-07-01T05:00:00Z,30.4367,-88.0117,81.4,1111122 
DISL,ioos:station:DISL:MBLA:1,2015-07-01T05:30:00Z,30.4367,-88.0117,87.4,1111122 
DISL,ioos:station:DISL:MBLA:1,2015-07-01T06:00:00Z,30.4367,-88.0117,86.5,1111122 
DISL,ioos:station:DISL:MBLA:1,2015-07-01T06:30:00Z,30.4367,-88.0117,78.03,1111122 
DISL,ioos:station:DISL:MBLA:1,2015-07-01T07:00:00Z,30.4367,-88.0117,77.25,1111122 
DISL,ioos:station:DISL:MBLA:1,2015-07-01T07:30:00Z,30.4367,-88.0117,72.03,1111122 
DISL,ioos:station:DISL:MBLA:1,2015-07-01T08:00:00Z,30.4367,-88.0117,70.44,1111122 
DISL,ioos:station:DISL:MBLA:1,2015-07-01T08:30:00Z,30.4367,-88.0117,71.94,1111122 
DISL,ioos:station:DISL:MBLA:1,2015-07-01T09:00:00Z,30.4367,-88.0117,72.53,1111122 
DISL,ioos:station:DISL:MBLA:1,2015-07-01T09:30:00Z,30.4367,-88.0117,74.36,1111122 
DISL,ioos:station:DISL:MBLA:1,2015-07-01T10:00:00Z,30.4367,-88.0117,75.14,1111122 
DISL,ioos:station:DISL:MBLA:1,2015-07-01T10:30:00Z,30.4367,-88.0117,76.8,1111122 
DISL,ioos:station:DISL:MBLA:1,2015-07-01T11:00:00Z,30.4367,-88.0117,78.56,1111122 
DISL,ioos:station:DISL:MBLA:1,2015-07-01T11:30:00Z,30.4367,-88.0117,78.49,1111122 
DISL,ioos:station:DISL:MBLA:1,2015-07-01T12:00:00Z,30.4367,-88.0117,77.13,1111122 
DISL,ioos:station:DISL:MBLA:1,2015-07-01T12:30:00Z,30.4367,-88.0117,77.39,1111122 
DISL,ioos:station:DISL:MBLA:1,2015-07-01T13:00:00Z,30.4367,-88.0117,76.34,1111122 
DISL,ioos:station:DISL:MBLA:1,2015-07-01T13:30:00Z,30.4367,-88.0117,75.66,1111122 
DISL,ioos:station:DISL:MBLA:1,2015-07-01T14:00:00Z,30.4367,-88.0117,74.78,1111122 
DISL,ioos:station:DISL:MBLA:1,2015-07-01T14:30:00Z,30.4367,-88.0117,74.13,1111122 
DISL,ioos:station:DISL:MBLA:1,2015-07-01T15:00:00Z,30.4367,-88.0117,65.93,1111122 
DISL,ioos:station:DISL:MBLA:1,2015-07-01T15:30:00Z,30.4367,-88.0117,60.1,1111122 
DISL,ioos:station:DISL:MBLA:1,2015-07-01T16:00:00Z,30.4367,-88.0117,64.03,1111122 
DISL,ioos:station:DISL:MBLA:1,2015-07-01T16:30:00Z,30.4367,-88.0117,67.32,1111122 
DISL,ioos:station:DISL:MBLA:1,2015-07-01T17:00:00Z,30.4367,-88.0117,67.15,1111122 
DISL,ioos:station:DISL:MBLA:1,2015-07-01T17:30:00Z,30.4367,-88.0117,66.71,1111122 
DISL,ioos:station:DISL:MBLA:1,2015-07-01T18:00:00Z,30.4367,-88.0117,65.53,1111122 
DISL,ioos:station:DISL:MBLA:1,2015-07-01T18:30:00Z,30.4367,-88.0117,70.85,1111122 
DISL,ioos:station:DISL:MBLA:1,2015-07-01T19:00:00Z,30.4367,-88.0117,74.61,1111122 
DISL,ioos:station:DISL:MBLA:1,2015-07-01T19:30:00Z,30.4367,-88.0117,73.45,1111122 
DISL,ioos:station:DISL:MBLA:1,2015-07-01T20:00:00Z,30.4367,-88.0117,72.4,1111122 
DISL,ioos:station:DISL:MBLA:1,2015-07-01T20:30:00Z,30.4367,-88.0117,71.76,1111122 
DISL,ioos:station:DISL:MBLA:1,2015-07-01T21:00:00Z,30.4367,-88.0117,75.85,1111122 
DISL,ioos:station:DISL:MBLA:1,2015-07-01T21:30:00Z,30.4367,-88.0117,76.26,1111122 
DISL,ioos:station:DISL:MBLA:1,2015-07-01T22:00:00Z,30.4367,-88.0117,76.29,1111122 
DISL,ioos:station:DISL:MBLA:1,2015-07-01T22:30:00Z,30.4367,-88.0117,100.0,1111122 
DISL,ioos:station:DISL:MBLA:1,2015-07-01T23:00:00Z,30.4367,-88.0117,100.0,1111122 
DISL,ioos:station:DISL:MBLA:1,2015-07-01T23:30:00Z,30.4367,-88.0117,90.3,1111122 
DISL,ioos:station:DISL:MBLA:1,2015-07-02T00:00:00Z,30.4367,-88.0117,85.7,1111122 
DISL,ioos:station:DISL:MBLA:1,2015-07-02T00:30:00Z,30.4367,-88.0117,83.3,1111122 
DISL,ioos:station:DISL:MBLA:1,2015-07-02T01:00:00Z,30.4367,-88.0117,87.7,1111122 
DISL,ioos:station:DISL:MBLA:1,2015-07-02T01:30:00Z,30.4367,-88.0117,80.8,1111122 
DISL,ioos:station:DISL:MBLA:1,2015-07-02T02:00:00Z,30.4367,-88.0117,81.6,1111122 
DISL,ioos:station:DISL:MBLA:1,2015-07-02T02:30:00Z,30.4367,-88.0117,77.11,1111122 
DISL,ioos:station:DISL:MBLA:1,2015-07-02T03:00:00Z,30.4367,-88.0117,77.0,1111122 
DISL,ioos:station:DISL:MBLA:1,2015-07-02T03:30:00Z,30.4367,-88.0117,76.36,1111122 
DISL,ioos:station:DISL:MBLA:1,2015-07-02T04:00:00Z,30.4367,-88.0117,80.7,1111122 
DISL,ioos:station:DISL:MBLA:1,2015-07-02T04:30:00Z,30.4367,-88.0117,82.7,1111122 
DISL,ioos:station:DISL:MBLA:1,2015-07-02T05:00:00Z,30.4367,-88.0117,83.6,1111122 
DISL,ioos:station:DISL:MBLA:1,2015-07-02T05:30:00Z,30.4367,-88.0117,78.15,1111122 
DISL,ioos:station:DISL:MBLA:1,2015-07-02T06:00:00Z,30.4367,-88.0117,78.12,1111122 
DISL,ioos:station:DISL:MBLA:1,2015-07-02T06:30:00Z,30.4367,-88.0117,77.97,1111122 
DISL,ioos:station:DISL:MBLA:1,2015-07-02T07:00:00Z,30.4367,-88.0117,78.17,1111122 
DISL,ioos:station:DISL:MBLA:1,2015-07-02T07:30:00Z,30.4367,-88.0117,79.76,1111122 
DISL,ioos:station:DISL:MBLA:1,2015-07-02T08:00:00Z,30.4367,-88.0117,82.1,1111122 
DISL,ioos:station:DISL:MBLA:1,2015-07-02T08:30:00Z,30.4367,-88.0117,79.42,1111122 
DISL,ioos:station:DISL:MBLA:1,2015-07-02T09:00:00Z,30.4367,-88.0117,80.5,1111122 
DISL,ioos:station:DISL:MBLA:1,2015-07-02T09:30:00Z,30.4367,-88.0117,79.18,1111122 
DISL,ioos:station:DISL:MBLA:1,2015-07-02T10:00:00Z,30.4367,-88.0117,80.2,1111122 
DISL,ioos:station:DISL:MBLA:1,2015-07-02T10:30:00Z,30.4367,-88.0117,74.23,1111122 
DISL,ioos:station:DISL:MBLA:1,2015-07-02T11:00:00Z,30.4367,-88.0117,68.58,1111122 
DISL,ioos:station:DISL:MBLA:1,2015-07-02T11:30:00Z,30.4367,-88.0117,84.8,1111122 
DISL,ioos:station:DISL:MBLA:1,2015-07-02T12:00:00Z,30.4367,-88.0117,79.72,1111122 
DISL,ioos:station:DISL:MBLA:1,2015-07-02T12:30:00Z,30.4367,-88.0117,73.32,1111122 
DISL,ioos:station:DISL:MBLA:1,2015-07-02T13:00:00Z,30.4367,-88.0117,78.23,1111122 
DISL,ioos:station:DISL:MBLA:1,2015-07-02T13:30:00Z,30.4367,-88.0117,73.46,1111122 
DISL,ioos:station:DISL:MBLA:1,2015-07-02T14:00:00Z,30.4367,-88.0117,68.64,1111122 
DISL,ioos:station:DISL:MBLA:1,2015-07-02T14:30:00Z,30.4367,-88.0117,68.74,1111122 
DISL,ioos:station:DISL:MBLA:1,2015-07-02T15:00:00Z,30.4367,-88.0117,68.68,1111122 
DISL,ioos:station:DISL:MBLA:1,2015-07-02T15:30:00Z,30.4367,-88.0117,65.7,1111122 
DISL,ioos:station:DISL:MBLA:1,2015-07-02T16:00:00Z,30.4367,-88.0117,70.51,1111122 
DISL,ioos:station:DISL:MBLA:1,2015-07-02T16:30:00Z,30.4367,-88.0117,70.37,1111122 
DISL,ioos:station:DISL:MBLA:1,2015-07-02T17:00:00Z,30.4367,-88.0117,68.81,1111122 
DISL,ioos:station:DISL:MBLA:1,2015-07-02T17:30:00Z,30.4367,-88.0117,71.86,1111122 
DISL,ioos:station:DISL:MBLA:1,2015-07-02T18:00:00Z,30.4367,-88.0117,72.2,1111122 
DISL,ioos:station:DISL:MBLA:1,2015-07-02T18:30:00Z,30.4367,-88.0117,73.83,1111122 
DISL,ioos:station:DISL:MBLA:1,2015-07-02T19:00:00Z,30.4367,-88.0117,77.38,1111122 
DISL,ioos:station:DISL:MBLA:1,2015-07-02T19:30:00Z,30.4367,-88.0117,70.98,1111122 
DISL,ioos:station:DISL:MBLA:1,2015-07-02T20:00:00Z,30.4367,-88.0117,71.46,1111122 
DISL,ioos:station:DISL:MBLA:1,2015-07-02T20:30:00Z,30.4367,-88.0117,70.81,1111122 
DISL,ioos:station:DISL:MBLA:1,2015-07-02T21:00:00Z,30.4367,-88.0117,72.3,1111122 
DISL,ioos:station:DISL:MBLA:1,2015-07-02T21:30:00Z,30.4367,-88.0117,74.63,1111122 
DISL,ioos:station:DISL:MBLA:1,2015-07-02T22:00:00Z,30.4367,-88.0117,77.88,1111122 
DISL,ioos:station:DISL:MBLA:1,2015-07-02T22:30:00Z,30.4367,-88.0117,79.14,1111122 
DISL,ioos:station:DISL:MBLA:1,2015-07-02T23:00:00Z,30.4367,-88.0117,73.0,1111122 
DISL,ioos:station:DISL:MBLA:1,2015-07-02T23:30:00Z,30.4367,-88.0117,80.5,1111122 
DISL,ioos:station:DISL:MBLA:1,2015-07-03T00:00:00Z,30.4367,-88.0117,79.79,1111122 
DISL,ioos:station:DISL:MBLA:1,2015-07-03T00:30:00Z,30.4367,-88.0117,79.48,1111122 
DISL,ioos:station:DISL:MBLA:1,2015-07-03T01:00:00Z,30.4367,-88.0117,74.13,1111122 
DISL,ioos:station:DISL:MBLA:1,2015-07-03T01:30:00Z,30.4367,-88.0117,71.35,1111122 
DISL,ioos:station:DISL:MBLA:1,2015-07-03T02:00:00Z,30.4367,-88.0117,72.57,1111122 
DISL,ioos:station:DISL:MBLA:1,2015-07-03T02:30:00Z,30.4367,-88.0117,70.57,1111122 
DISL,ioos:station:DISL:MBLA:1,2015-07-03T03:00:00Z,30.4367,-88.0117,76.47,1111122 
DISL,ioos:station:DISL:MBLA:1,2015-07-03T03:30:00Z,30.4367,-88.0117,74.57,1111122 
DISL,ioos:station:DISL:MBLA:1,2015-07-03T04:00:00Z,30.4367,-88.0117,81.8,1111122 
DISL,ioos:station:DISL:MBLA:1,2015-07-03T04:30:00Z,30.4367,-88.0117,85.1,1111122 
DISL,ioos:station:DISL:MBLA:1,2015-07-03T05:00:00Z,30.4367,-88.0117,84.6,1111122 
DISL,ioos:station:DISL:MBLA:1,2015-07-03T05:30:00Z,30.4367,-88.0117,84.8,1111122 
DISL,ioos:station:DISL:MBLA:1,2015-07-03T06:00:00Z,30.4367,-88.0117,83.8,1111122 
DISL,ioos:station:DISL:MBLA:1,2015-07-03T06:30:00Z,30.4367,-88.0117,82.6,1111122 
DISL,ioos:station:DISL:MBLA:1,2015-07-03T07:00:00Z,30.4367,-88.0117,85.0,1111122 
DISL,ioos:station:DISL:MBLA:1,2015-07-03T07:30:00Z,30.4367,-88.0117,85.0,1111122 
DISL,ioos:station:DISL:MBLA:1,2015-07-03T08:00:00Z,30.4367,-88.0117,86.6,1111122 
DISL,ioos:station:DISL:MBLA:1,2015-07-03T08:30:00Z,30.4367,-88.0117,86.9,1111122 
DISL,ioos:station:DISL:MBLA:1,2015-07-03T09:00:00Z,30.4367,-88.0117,89.5,1111122 
DISL,ioos:station:DISL:MBLA:1,2015-07-03T09:30:00Z,30.4367,-88.0117,88.0,1111122 
DISL,ioos:station:DISL:MBLA:1,2015-07-03T10:00:00Z,30.4367,-88.0117,88.1,1111122 
DISL,ioos:station:DISL:MBLA:1,2015-07-03T10:30:00Z,30.4367,-88.0117,86.6,1111122 
DISL,ioos:station:DISL:MBLA:1,2015-07-03T11:00:00Z,30.4367,-88.0117,86.8,1111122 
DISL,ioos:station:DISL:MBLA:1,2015-07-03T11:30:00Z,30.4367,-88.0117,86.5,1111122 
DISL,ioos:station:DISL:MBLA:1,2015-07-03T12:00:00Z,30.4367,-88.0117,88.5,1111122 
DISL,ioos:station:DISL:MBLA:1,2015-07-03T12:30:00Z,30.4367,-88.0117,86.8,1111122 
DISL,ioos:station:DISL:MBLA:1,2015-07-03T13:00:00Z,30.4367,-88.0117,85.3,1111122 
DISL,ioos:station:DISL:MBLA:1,2015-07-03T13:30:00Z,30.4367,-88.0117,85.3,1111122 
DISL,ioos:station:DISL:MBLA:1,2015-07-03T14:00:00Z,30.4367,-88.0117,82.5,1111122 
DISL,ioos:station:DISL:MBLA:1,2015-07-03T14:30:00Z,30.4367,-88.0117,85.5,1111122 
DISL,ioos:station:DISL:MBLA:1,2015-07-03T15:00:00Z,30.4367,-88.0117,80.7,1111122 
DISL,ioos:station:DISL:MBLA:1,2015-07-03T15:30:00Z,30.4367,-88.0117,82.8,1111122 
DISL,ioos:station:DISL:MBLA:1,2015-07-03T16:00:00Z,30.4367,-88.0117,81.0,1111122 
DISL,ioos:station:DISL:MBLA:1,2015-07-03T16:30:00Z,30.4367,-88.0117,81.2,1111122 
DISL,ioos:station:DISL:MBLA:1,2015-07-03T17:00:00Z,30.4367,-88.0117,83.2,1111122 
DISL,ioos:station:DISL:MBLA:1,2015-07-03T17:30:00Z,30.4367,-88.0117,80.3,1111122 
DISL,ioos:station:DISL:MBLA:1,2015-07-03T18:00:00Z,30.4367,-88.0117,80.8,1111122 
DISL,ioos:station:DISL:MBLA:1,2015-07-03T18:30:00Z,30.4367,-88.0117,81.6,1111122 
DISL,ioos:station:DISL:MBLA:1,2015-07-03T19:00:00Z,30.4367,-88.0117,80.9,1111122 
DISL,ioos:station:DISL:MBLA:1,2015-07-03T19:30:00Z,30.4367,-88.0117,78.87,1111122 
DISL,ioos:station:DISL:MBLA:1,2015-07-03T20:00:00Z,30.4367,-88.0117,80.0,1111122 
DISL,ioos:station:DISL:MBLA:1,2015-07-03T20:30:00Z,30.4367,-88.0117,77.99,1111122 
DISL,ioos:station:DISL:MBLA:1,2015-07-03T21:00:00Z,30.4367,-88.0117,81.5,1111122 
DISL,ioos:station:DISL:MBLA:1,2015-07-03T21:30:00Z,30.4367,-88.0117,73.58,1111122 
DISL,ioos:station:DISL:MBLA:1,2015-07-03T22:00:00Z,30.4367,-88.0117,78.25,1111122 
DISL,ioos:station:DISL:MBLA:1,2015-07-03T22:30:00Z,30.4367,-88.0117,80.6,1111122 
DISL,ioos:station:DISL:MBLA:1,2015-07-03T23:00:00Z,30.4367,-88.0117,82.4,1111122 
DISL,ioos:station:DISL:MBLA:1,2015-07-03T23:30:00Z,30.4367,-88.0117,78.32,1111122 
DISL,ioos:station:DISL:MBLA:1,2015-07-04T00:00:00Z,30.4367,-88.0117,81.4,1111122 
DISL,ioos:station:DISL:MBLA:1,2015-07-04T00:30:00Z,30.4367,-88.0117,81.5,1111122 
DISL,ioos:station:DISL:MBLA:1,2015-07-04T01:00:00Z,30.4367,-88.0117,76.84,1111122 
DISL,ioos:station:DISL:MBLA:1,2015-07-04T01:30:00Z,30.4367,-88.0117,75.28,1111122 
DISL,ioos:station:DISL:MBLA:1,2015-07-04T02:00:00Z,30.4367,-88.0117,77.66,1111122 
DISL,ioos:station:DISL:MBLA:1,2015-07-04T02:30:00Z,30.4367,-88.0117,77.59,1111122 
DISL,ioos:station:DISL:MBLA:1,2015-07-04T03:00:00Z,30.4367,-88.0117,76.64,1111122 
DISL,ioos:station:DISL:MBLA:1,2015-07-04T03:30:00Z,30.4367,-88.0117,74.98,1111122 
DISL,ioos:station:DISL:MBLA:1,2015-07-04T04:00:00Z,30.4367,-88.0117,76.61,1111122 
DISL,ioos:station:DISL:MBLA:1,2015-07-04T04:30:00Z,30.4367,-88.0117,77.42,1111122 
DISL,ioos:station:DISL:MBLA:1,2015-07-04T05:00:00Z,30.4367,-88.0117,80.3,1111122 
DISL,ioos:station:DISL:MBLA:1,2015-07-04T05:30:00Z,30.4367,-88.0117,77.89,1111122 
DISL,ioos:station:DISL:MBLA:1,2015-07-04T06:00:00Z,30.4367,-88.0117,79.38,1111122 
DISL,ioos:station:DISL:MBLA:1,2015-07-04T06:30:00Z,30.4367,-88.0117,80.2,1111122 
DISL,ioos:station:DISL:MBLA:1,2015-07-04T07:00:00Z,30.4367,-88.0117,77.08,1111122 
DISL,ioos:station:DISL:MBLA:1,2015-07-04T07:30:00Z,30.4367,-88.0117,81.6,1111122 
DISL,ioos:station:DISL:MBLA:1,2015-07-04T08:00:00Z,30.4367,-88.0117,80.3,1111122 
DISL,ioos:station:DISL:MBLA:1,2015-07-04T08:30:00Z,30.4367,-88.0117,78.03,1111122 
DISL,ioos:station:DISL:MBLA:1,2015-07-04T09:00:00Z,30.4367,-88.0117,77.18,1111122 
DISL,ioos:station:DISL:MBLA:1,2015-07-04T09:30:00Z,30.4367,-88.0117,83.0,1111122 
DISL,ioos:station:DISL:MBLA:1,2015-07-04T10:00:00Z,30.4367,-88.0117,82.4,1111122 
DISL,ioos:station:DISL:MBLA:1,2015-07-04T10:30:00Z,30.4367,-88.0117,85.3,1111122 
DISL,ioos:station:DISL:MBLA:1,2015-07-04T11:00:00Z,30.4367,-88.0117,85.0,1111122 
DISL,ioos:station:DISL:MBLA:1,2015-07-04T11:30:00Z,30.4367,-88.0117,83.9,1111122 
DISL,ioos:station:DISL:MBLA:1,2015-07-04T12:00:00Z,30.4367,-88.0117,83.4,1111122 
DISL,ioos:station:DISL:MBLA:1,2015-07-04T12:30:00Z,30.4367,-88.0117,84.4,1111122 
DISL,ioos:station:DISL:MBLA:1,2015-07-04T13:00:00Z,30.4367,-88.0117,82.1,1111122 
DISL,ioos:station:DISL:MBLA:1,2015-07-04T13:30:00Z,30.4367,-88.0117,80.8,1111122 
DISL,ioos:station:DISL:MBLA:1,2015-07-04T14:00:00Z,30.4367,-88.0117,79.38,1111122 
DISL,ioos:station:DISL:MBLA:1,2015-07-04T14:30:00Z,30.4367,-88.0117,78.47,1111122 
DISL,ioos:station:DISL:MBLA:1,2015-07-04T15:00:00Z,30.4367,-88.0117,75.62,1111122 
DISL,ioos:station:DISL:MBLA:1,2015-07-04T15:30:00Z,30.4367,-88.0117,74.13,1111122 
DISL,ioos:station:DISL:MBLA:1,2015-07-04T16:00:00Z,30.4367,-88.0117,75.22,1111122 
DISL,ioos:station:DISL:MBLA:1,2015-07-04T16:30:00Z,30.4367,-88.0117,81.5,1111122 
DISL,ioos:station:DISL:MBLA:1,2015-07-04T17:00:00Z,30.4367,-88.0117,78.67,1111122 
DISL,ioos:station:DISL:MBLA:1,2015-07-04T17:30:00Z,30.4367,-88.0117,78.81,1111122 
DISL,ioos:station:DISL:MBLA:1,2015-07-04T18:00:00Z,30.4367,-88.0117,81.2,1111122 
DISL,ioos:station:DISL:MBLA:1,2015-07-04T18:30:00Z,30.4367,-88.0117,80.3,1111122 
DISL,ioos:station:DISL:MBLA:1,2015-07-04T19:00:00Z,30.4367,-88.0117,78.6,1111122 
DISL,ioos:station:DISL:MBLA:1,2015-07-04T19:30:00Z,30.4367,-88.0117,76.5,1111122 
DISL,ioos:station:DISL:MBLA:1,2015-07-04T20:00:00Z,30.4367,-88.0117,74.57,1111122 
DISL,ioos:station:DISL:MBLA:1,2015-07-04T20:30:00Z,30.4367,-88.0117,75.11,1111122 
DISL,ioos:station:DISL:MBLA:1,2015-07-04T21:00:00Z,30.4367,-88.0117,74.15,1111122 
DISL,ioos:station:DISL:MBLA:1,2015-07-04T21:30:00Z,30.4367,-88.0117,76.32,1111122 
DISL,ioos:station:DISL:MBLA:1,2015-07-04T22:00:00Z,30.4367,-88.0117,74.76,1111122 
DISL,ioos:station:DISL:MBLA:1,2015-07-04T22:30:00Z,30.4367,-88.0117,73.95,1111122 
DISL,ioos:station:DISL:MBLA:1,2015-07-04T23:00:00Z,30.4367,-88.0117,76.93,1111122 
DISL,ioos:station:DISL:MBLA:1,2015-07-04T23:30:00Z,30.4367,-88.0117,73.28,1111122 
DISL,ioos:station:DISL:MBLA:1,2015-07-05T00:00:00Z,30.4367,-88.0117,100.0,1111122 
DISL,ioos:station:DISL:MBLA:1,2015-07-05T00:30:00Z,30.4367,-88.0117,100.0,1111122 
DISL,ioos:station:DISL:MBLA:1,2015-07-05T01:00:00Z,30.4367,-88.0117,89.4,1111122 
DISL,ioos:station:DISL:MBLA:1,2015-07-05T01:30:00Z,30.4367,-88.0117,85.8,1111122 
DISL,ioos:station:DISL:MBLA:1,2015-07-05T02:00:00Z,30.4367,-88.0117,79.55,1111122 
DISL,ioos:station:DISL:MBLA:1,2015-07-05T02:30:00Z,30.4367,-88.0117,66.06,1111122 
DISL,ioos:station:DISL:MBLA:1,2015-07-05T03:00:00Z,30.4367,-88.0117,81.0,1111122 
DISL,ioos:station:DISL:MBLA:1,2015-07-05T03:30:00Z,30.4367,-88.0117,76.36,1111122 
DISL,ioos:station:DISL:MBLA:1,2015-07-05T04:00:00Z,30.4367,-88.0117,78.59,1111122 
DISL,ioos:station:DISL:MBLA:1,2015-07-05T04:30:00Z,30.4367,-88.0117,78.01,1111122 
DISL,ioos:station:DISL:MBLA:1,2015-07-05T05:00:00Z,30.4367,-88.0117,85.8,1111122 
DISL,ioos:station:DISL:MBLA:1,2015-07-05T05:30:00Z,30.4367,-88.0117,82.8,1111122 
DISL,ioos:station:DISL:MBLA:1,2015-07-05T06:00:00Z,30.4367,-88.0117,80.9,1111122 
DISL,ioos:station:DISL:MBLA:1,2015-07-05T06:30:00Z,30.4367,-88.0117,82.8,1111122 
DISL,ioos:station:DISL:MBLA:1,2015-07-05T07:00:00Z,30.4367,-88.0117,85.0,1111122 
DISL,ioos:station:DISL:MBLA:1,2015-07-05T07:30:00Z,30.4367,-88.0117,90.7,1111122 
DISL,ioos:station:DISL:MBLA:1,2015-07-05T08:00:00Z,30.4367,-88.0117,93.0,1111122 
DISL,ioos:station:DISL:MBLA:1,2015-07-05T08:30:00Z,30.4367,-88.0117,95.9,1111122 
DISL,ioos:station:DISL:MBLA:1,2015-07-05T09:00:00Z,30.4367,-88.0117,91.3,1111122 
DISL,ioos:station:DISL:MBLA:1,2015-07-05T09:30:00Z,30.4367,-88.0117,92.1,1111122 
DISL,ioos:station:DISL:MBLA:1,2015-07-05T10:00:00Z,30.4367,-88.0117,92.4,1111122 
DISL,ioos:station:DISL:MBLA:1,2015-07-05T10:30:00Z,30.4367,-88.0117,94.5,1111122 
DISL,ioos:station:DISL:MBLA:1,2015-07-05T11:00:00Z,30.4367,-88.0117,80.8,1111122 
DISL,ioos:station:DISL:MBLA:1,2015-07-05T11:30:00Z,30.4367,-88.0117,76.73,1111122 
DISL,ioos:station:DISL:MBLA:1,2015-07-05T12:00:00Z,30.4367,-88.0117,77.89,1111122 
DISL,ioos:station:DISL:MBLA:1,2015-07-05T12:30:00Z,30.4367,-88.0117,80.2,1111122 
DISL,ioos:station:DISL:MBLA:1,2015-07-05T13:00:00Z,30.4367,-88.0117,80.1,1111122 
DISL,ioos:station:DISL:MBLA:1,2015-07-05T13:30:00Z,30.4367,-88.0117,79.68,1111122 
DISL,ioos:station:DISL:MBLA:1,2015-07-05T14:00:00Z,30.4367,-88.0117,82.1,1111122 
DISL,ioos:station:DISL:MBLA:1,2015-07-05T14:30:00Z,30.4367,-88.0117,83.0,1111122 
DISL,ioos:station:DISL:MBLA:1,2015-07-05T15:00:00Z,30.4367,-88.0117,78.8,1111122 
DISL,ioos:station:DISL:MBLA:1,2015-07-05T15:30:00Z,30.4367,-88.0117,79.2,1111122 
DISL,ioos:station:DISL:MBLA:1,2015-07-05T16:00:00Z,30.4367,-88.0117,74.08,1111122 
DISL,ioos:station:DISL:MBLA:1,2015-07-05T16:30:00Z,30.4367,-88.0117,83.5,1111122 
DISL,ioos:station:DISL:MBLA:1,2015-07-05T17:00:00Z,30.4367,-88.0117,86.0,1111122 
DISL,ioos:station:DISL:MBLA:1,2015-07-05T17:30:00Z,30.4367,-88.0117,83.9,1111122 
DISL,ioos:station:DISL:MBLA:1,2015-07-05T18:00:00Z,30.4367,-88.0117,82.0,1111122 
DISL,ioos:station:DISL:MBLA:1,2015-07-05T18:30:00Z,30.4367,-88.0117,83.0,1111122 
DISL,ioos:station:DISL:MBLA:1,2015-07-05T19:00:00Z,30.4367,-88.0117,98.7,1111122 
DISL,ioos:station:DISL:MBLA:1,2015-07-05T19:30:00Z,30.4367,-88.0117,86.0,1111122 
DISL,ioos:station:DISL:MBLA:1,2015-07-05T20:00:00Z,30.4367,-88.0117,75.41,1111122 
DISL,ioos:station:DISL:MBLA:1,2015-07-05T20:30:00Z,30.4367,-88.0117,72.84,1111122 
DISL,ioos:station:DISL:MBLA:1,2015-07-05T21:00:00Z,30.4367,-88.0117,85.8,1111122 
DISL,ioos:station:DISL:MBLA:1,2015-07-05T21:30:00Z,30.4367,-88.0117,83.1,1111122 
DISL,ioos:station:DISL:MBLA:1,2015-07-05T22:00:00Z,30.4367,-88.0117,77.95,1111122 
DISL,ioos:station:DISL:MBLA:1,2015-07-05T22:30:00Z,30.4367,-88.0117,79.34,1111122 
DISL,ioos:station:DISL:MBLA:1,2015-07-05T23:00:00Z,30.4367,-88.0117,88.3,1111122 
DISL,ioos:station:DISL:MBLA:1,2015-07-05T23:30:00Z,30.4367,-88.0117,89.8,1111122 
DISL,ioos:station:DISL:MBLA:1,2015-07-06T00:00:00Z,30.4367,-88.0117,81.9,1111122 
DISL,ioos:station:DISL:MBLA:1,2015-07-06T00:30:00Z,30.4367,-88.0117,83.9,1111122 
DISL,ioos:station:DISL:MBLA:1,2015-07-06T01:00:00Z,30.4367,-88.0117,82.2,1111122 
DISL,ioos:station:DISL:MBLA:1,2015-07-06T01:30:00Z,30.4367,-88.0117,77.48,1111122 
DISL,ioos:station:DISL:MBLA:1,2015-07-06T02:00:00Z,30.4367,-88.0117,82.8,1111122 
DISL,ioos:station:DISL:MBLA:1,2015-07-06T02:30:00Z,30.4367,-88.0117,83.3,1111122 
DISL,ioos:station:DISL:MBLA:1,2015-07-06T03:00:00Z,30.4367,-88.0117,79.65,1111122 
DISL,ioos:station:DISL:MBLA:1,2015-07-06T03:30:00Z,30.4367,-88.0117,76.09,1111122 
DISL,ioos:station:DISL:MBLA:1,2015-07-06T04:00:00Z,30.4367,-88.0117,70.46,1111122 
DISL,ioos:station:DISL:MBLA:1,2015-07-06T04:30:00Z,30.4367,-88.0117,69.01,1111122 
DISL,ioos:station:DISL:MBLA:1,2015-07-06T05:00:00Z,30.4367,-88.0117,65.82,1111122 
DISL,ioos:station:DISL:MBLA:1,2015-07-06T05:30:00Z,30.4367,-88.0117,61.04,1111122 
DISL,ioos:station:DISL:MBLA:1,2015-07-06T06:00:00Z,30.4367,-88.0117,78.43,1111122 
DISL,ioos:station:DISL:MBLA:1,2015-07-06T06:30:00Z,30.4367,-88.0117,78.63,1111122 
DISL,ioos:station:DISL:MBLA:1,2015-07-06T07:00:00Z,30.4367,-88.0117,77.82,1111122 
DISL,ioos:station:DISL:MBLA:1,2015-07-06T07:30:00Z,30.4367,-88.0117,80.4,1111122 
DISL,ioos:station:DISL:MBLA:1,2015-07-06T08:00:00Z,30.4367,-88.0117,85.2,1111122 
DISL,ioos:station:DISL:MBLA:1,2015-07-06T08:30:00Z,30.4367,-88.0117,82.7,1111122 
DISL,ioos:station:DISL:MBLA:1,2015-07-06T09:00:00Z,30.4367,-88.0117,81.2,1111122 
DISL,ioos:station:DISL:MBLA:1,2015-07-06T09:30:00Z,30.4367,-88.0117,82.6,1111122 
DISL,ioos:station:DISL:MBLA:1,2015-07-06T10:00:00Z,30.4367,-88.0117,83.8,1111122 
DISL,ioos:station:DISL:MBLA:1,2015-07-06T10:30:00Z,30.4367,-88.0117,79.04,1111122 
DISL,ioos:station:DISL:MBLA:1,2015-07-06T11:00:00Z,30.4367,-88.0117,84.9,1111122 
DISL,ioos:station:DISL:MBLA:1,2015-07-06T11:30:00Z,30.4367,-88.0117,86.0,1111122 
DISL,ioos:station:DISL:MBLA:1,2015-07-06T12:00:00Z,30.4367,-88.0117,81.9,1111122 
DISL,ioos:station:DISL:MBLA:1,2015-07-06T12:30:00Z,30.4367,-88.0117,80.3,1111122 
DISL,ioos:station:DISL:MBLA:1,2015-07-06T13:00:00Z,30.4367,-88.0117,76.02,1111122 
DISL,ioos:station:DISL:MBLA:1,2015-07-06T13:30:00Z,30.4367,-88.0117,67.82,1111122 
DISL,ioos:station:DISL:MBLA:1,2015-07-06T14:00:00Z,30.4367,-88.0117,79.41,1111122 
DISL,ioos:station:DISL:MBLA:1,2015-07-06T14:30:00Z,30.4367,-88.0117,73.54,1111122 
DISL,ioos:station:DISL:MBLA:1,2015-07-06T15:00:00Z,30.4367,-88.0117,71.6,1111122 
DISL,ioos:station:DISL:MBLA:1,2015-07-06T15:30:00Z,30.4367,-88.0117,66.68,1111122 
DISL,ioos:station:DISL:MBLA:1,2015-07-06T16:00:00Z,30.4367,-88.0117,65.22,1111122 
DISL,ioos:station:DISL:MBLA:1,2015-07-06T16:30:00Z,30.4367,-88.0117,63.49,1111122 
DISL,ioos:station:DISL:MBLA:1,2015-07-06T17:00:00Z,30.4367,-88.0117,64.2,1111122 
DISL,ioos:station:DISL:MBLA:1,2015-07-06T17:30:00Z,30.4367,-88.0117,59.94,1111122 
DISL,ioos:station:DISL:MBLA:1,2015-07-06T18:00:00Z,30.4367,-88.0117,66.85,1111122 
DISL,ioos:station:DISL:MBLA:1,2015-07-06T18:30:00Z,30.4367,-88.0117,66.1,1111122 
DISL,ioos:station:DISL:MBLA:1,2015-07-06T19:00:00Z,30.4367,-88.0117,66.78,1111122 
DISL,ioos:station:DISL:MBLA:1,2015-07-06T19:30:00Z,30.4367,-88.0117,56.1,1111122 
DISL,ioos:station:DISL:MBLA:1,2015-07-06T20:00:00Z,30.4367,-88.0117,54.17,1111122 
DISL,ioos:station:DISL:MBLA:1,2015-07-06T20:30:00Z,30.4367,-88.0117,52.91,1111122 
DISL,ioos:station:DISL:MBLA:1,2015-07-06T21:00:00Z,30.4367,-88.0117,49.99,1111122 
DISL,ioos:station:DISL:MBLA:1,2015-07-06T21:30:00Z,30.4367,-88.0117,56.49,1111122 
DISL,ioos:station:DISL:MBLA:1,2015-07-06T22:00:00Z,30.4367,-88.0117,63.0,1111122 
DISL,ioos:station:DISL:MBLA:1,2015-07-06T22:30:00Z,30.4367,-88.0117,67.77,1111122 
DISL,ioos:station:DISL:MBLA:1,2015-07-06T23:00:00Z,30.4367,-88.0117,69.87,1111122 
DISL,ioos:station:DISL:MBLA:1,2015-07-06T23:30:00Z,30.4367,-88.0117,74.01,1111122 
DISL,ioos:station:DISL:MBLA:1,2015-07-07T00:00:00Z,30.4367,-88.0117,71.37,1111122 
DISL,ioos:station:DISL:MBLA:1,2015-07-07T00:30:00Z,30.4367,-88.0117,73.65,1111122 